This is the latest recevied weather packets stored in our database for station/object K1BES. If no packets are shown the sender has not sent any weather packets the latest 10 day(s).
| Time | Temp. | Humidity | Pressure | Rain* | Wind** | Luminosity | Snow |
|---|---|---|---|---|---|---|---|
| 1788113406 | 28.33° C | 77% | 1018.8 hPa | 1.78 mm | - | 153 W/m² | - |
| 1788113106 | 29.44° C | 71% | 1019 hPa | 0 mm | - | 169 W/m² | - |
| 1788112804 | 30.56° C | 70% | 1019.1 hPa | 0 mm | - | 134 W/m² | - |
| 1788112499 | 31.11° C | 72% | 1019 hPa | 0 mm | - | 127 W/m² | - |
| 1788112194 | 31.67° C | 72% | 1019.2 hPa | 0 mm | - | 142 W/m² | - |
| 1788111890 | 32.22° C | 70% | 1019.1 hPa | 0 mm | - | 429 W/m² | - |
| 1788111590 | 32.78° C | 69% | 1019.2 hPa | 0 mm | - | 255 W/m² | - |
| 1788111286 | 32.78° C | 67% | 1019.2 hPa | 0 mm | - | 1178 W/m² | - |
| 1788110981 | 32.22° C | 68% | 1019.3 hPa | 0 mm | - | 1098 W/m² | - |
| 1788110677 | 32.22° C | 69% | 1019.3 hPa | 0 mm | - | 1118 W/m² | - |
| 1788110373 | 31.67° C | 71% | 1019.3 hPa | 0 mm | - | 766 W/m² | - |
| 1788110069 | 31.67° C | 72% | 1019.3 hPa | 0 mm | - | 882 W/m² | - |
| 1788109768 | 31.11° C | 74% | 1019.2 hPa | 0 mm | - | 791 W/m² | - |
| 1788109468 | 31.11° C | 73% | 1019.1 hPa | 0 mm | - | 540 W/m² | - |
| 1788109166 | 32.22° C | 71% | 1019.5 hPa | 0 mm | - | 201 W/m² | - |
| 1788108863 | 32.78° C | 68% | 1019.2 hPa | 0 mm | - | 258 W/m² | - |
| 1788108559 | 32.22° C | 70% | 1019.3 hPa | 0 mm | - | 1042 W/m² | - |
| 1788108254 | 31.11° C | 75% | 1019.3 hPa | 0 mm | - | 1117 W/m² | - |
| 1788107951 | 31.11° C | 73% | 1019.3 hPa | 0 mm | - | 218 W/m² | - |
| 1788107647 | 31.11° C | 73% | 1019.3 hPa | 0 mm | - | 186 W/m² | - |
| 1788107346 | 31.67° C | 73% | 1019.5 hPa | 0 mm | - | 160 W/m² | - |
| 1788107042 | 32.22° C | 70% | 1019.6 hPa | 0 mm | - | 176 W/m² | - |
| 1788106737 | 32.78° C | 69% | 1019.6 hPa | 0 mm | - | 191 W/m² | - |
| 1788106436 | 32.78° C | 69% | 1019.8 hPa | 0 mm | - | 312 W/m² | - |
| 1788106132 | 32.78° C | 69% | 1019.8 hPa | 0 mm | - | 1114 W/m² | - |
* Rain latest hour (hover to see other rain measurements)
** Current wind speed in m/s (hover to see current wind gust speed)